QPF
0.00 0.00 0.00 0.01 0.01 0.01 0.01 0.01 0.01 0.01 0.00 0.00 0.01 0.01 0.01 0.01 0.01 0.01 0.01 0.01 0.01 0.01 0.02 0.02 0.03 0.03 0.03 0.03 0.02 0.01 0.01 0.02 0.05 0.04 0.03 0.02 0.02 0.01 0.01 0.02 0.02 0.03 0.04 0.04 0.03 0.02 0.02 0.03 0.02
0.00 0.00 0.01 0.01 0.01 0.01 0.01 0.01 0.01 0.01 0.00 0.00 0.00 0.00 0.00 0.00 0.00 0.01 0.02 0.01 0.00 0.01 0.03 0.03 0.02 0.02 0.03 0.02 0.02 0.01 0.01 0.01 0.03 0.05 0.03 0.02 0.01 0.02 0.01 0.02 0.02 0.03 0.02 0.03 0.02 0.02 0.02 0.02 0.02
0.00 0.01 0.01 0.01 0.01 0.01 0.01 0.00 0.01 0.00 0.00 0.00 0.00 0.00 0.00 0.00 0.00 0.00 0.01 0.01 0.00 0.01 0.02 0.02 0.02 0.02 0.03 0.02 0.02 0.02 0.01 0.01 0.03 0.10 0.05 0.03 0.03 0.02 0.03 0.03 0.03 0.03 0.03 0.02 0.02 0.02 0.03 0.03 0.02
0.01 0.01 0.01 0.01 0.00 0.00 0.00 0.00 0.00 0.00 0.00 0.00 0.00 0.00 0.00 0.00 0.00 0.00 0.00 0.01 0.00 0.01 0.01 0.01 0.01 0.02 0.02 0.03 0.02 0.01 0.01 0.01 0.02 0.09 0.07 0.06 0.04 0.03 0.03 0.03 0.03 0.04 0.04 0.03 0.03 0.03 0.02 0.02 0.02
0.02 0.02 0.01 0.00 0.00 0.00 0.00 0.00 0.00 0.00 0.00 0.00 0.00 0.01 0.01 0.00 0.00 0.00 0.00 0.01 0.01 0.01 0.01 0.01 0.01 0.01 0.02 0.02 0.02 0.01 0.02 0.02 0.02 0.05 0.06 0.04 0.04 0.03 0.04 0.03 0.02 0.03 0.03 0.02 0.03 0.03 0.02 0.02 0.02
0.02 0.02 0.01 0.01 0.00 0.00 0.00 0.00 0.00 0.00 0.00 0.00 0.00 0.01 0.01 0.01 0.01 0.01 0.01 0.01 0.01 0.01 0.02 0.01 0.01 0.02 0.02 0.02 0.02 0.02 0.02 0.02 0.02 0.03 0.05 0.06 0.06 0.07 0.05 0.02 0.02 0.02 0.03 0.03 0.02 0.02 0.02 0.02 0.03
0.01 0.01 0.00 0.00 0.00 0.00 0.00 0.00 0.00 0.00 0.00 0.00 0.00 0.00 0.01 0.01 0.01 0.01 0.01 0.01 0.01 0.01 0.02 0.01 0.02 0.02 0.02 0.02 0.02 0.02 0.02 0.02 0.02 0.02 0.03 0.06 0.06 0.05 0.03 0.02 0.02 0.02 0.03 0.04 0.03 0.03 0.03 0.03 0.03
0.01 0.01 0.00 0.00 0.00 0.00 0.00 0.00 0.00 0.00 0.00 0.00 0.00 0.01 0.01 0.01 0.01 0.01 0.01 0.01 0.02 0.02 0.02 0.02 0.02 0.01 0.02 0.02 0.02 0.02 0.01 0.02 0.02 0.03 0.03 0.03 0.02 0.02 0.02 0.02 0.02 0.02 0.02 0.03 0.03 0.04 0.03 0.03 0.03
0.01 0.01 0.00 0.00 0.00 0.00 0.00 0.00 0.00 0.00 0.00 0.00 0.00 0.01 0.01 0.01 0.00 0.00 0.00 0.01 0.02 0.02 0.02 0.02 0.02 0.02 0.01 0.02 0.02 0.02 0.02 0.02 0.02 0.03 0.02 0.02 0.01 0.01 0.01 0.01 0.01 0.01 0.01 0.02 0.04 0.04 0.03 0.03 0.03
0.01 0.01 0.00 0.00 0.00 0.00 0.00 0.00 0.00 0.00 0.00 0.00 0.00 0.00 0.01 0.01 0.00 0.00 0.00 0.01 0.02 0.03 0.04 0.03 0.02 0.03 0.02 0.02 0.02 0.02 0.02 0.02 0.02 0.02 0.01 0.01 0.01 0.01 0.00 0.00 0.00 0.00 0.01 0.02 0.03 0.03 0.03 0.03 0.02
0.00 0.00 0.00 0.00 0.00 0.00 0.00 0.00 0.00 0.00 0.00 0.00 0.00 0.00 0.00 0.00 0.00 0.00 0.00 0.01 0.01 0.02 0.04 0.05 0.03 0.03 0.03 0.03 0.03 0.02 0.01 0.01 0.01 0.01 0.01 0.00 0.00 0.00 0.01 0.01 0.01 0.01 0.01 0.02 0.03 0.03 0.03 0.03 0.03
0.00 0.00 0.00 0.00 0.00 0.00 0.00 0.00 0.00 0.00 0.00 0.00 0.00 0.00 0.00 0.00 0.00 0.00 0.00 0.00 0.01 0.02 0.02 0.05 0.06 0.04 0.03 0.04 0.04 0.03 0.02 0.01 0.01 0.00 0.00 0.00 0.00 0.01 0.01 0.01 0.01 0.01 0.01 0.02 0.02 0.03 0.02 0.03 0.04
0.00 0.00 0.00 0.00 0.00 0.00 0.00 0.00 0.00 0.00 0.00 0.00 0.00 0.00 0.00 0.01 0.00 0.00 0.01 0.01 0.01 0.01 0.02 0.04 0.06 0.06 0.05 0.04 0.04 0.04 0.04 0.02 0.01 0.00 0.00 0.00 0.00 0.00 0.00 0.01 0.01 0.01 0.01 0.02 0.03 0.03 0.02 0.03 0.04
0.00 0.00 0.00 0.00 0.00 0.00 0.00 0.00 0.00 0.00 0.00 0.00 0.00 0.00 0.00 0.00 0.01 0.01 0.01 0.01 0.02 0.01 0.02 0.04 0.05 0.06 0.06 0.06 0.05 0.04 0.04 0.03 0.02 0.01 0.01 0.01 0.01 0.01 0.01 0.00 0.00 0.00 0.00 0.00 0.01 0.03 0.03 0.03 0.05
0.00 0.00 0.00 0.00 0.00 0.00 0.00 0.00 0.00 0.00 0.00 0.00 0.00 0.00 0.00 0.00 0.01 0.01 0.01 0.01 0.01 0.01 0.01 0.02 0.04 0.06 0.06 0.05 0.06 0.06 0.04 0.03 0.02 0.01 0.02 0.02 0.01 0.01 0.01 0.01 0.00 0.00 0.01 0.01 0.01 0.02 0.04 0.04 0.05
0.00 0.00 0.00 0.00 0.00 0.00 0.00 0.00 0.00 0.00 0.00 0.00 0.00 0.00 0.00 0.00 0.00 0.01 0.01 0.01 0.01 0.01 0.01 0.01 0.02 0.03 0.04 0.04 0.04 0.04 0.03 0.02 0.02 0.01 0.02 0.02 0.02 0.01 0.01 0.00 0.01 0.01 0.01 0.02 0.02 0.02 0.04 0.05 0.05
0.00 0.00 0.00 0.00 0.00 0.00 0.01 0.00 0.00 0.00 0.00 0.00 0.00 0.00 0.00 0.00 0.00 0.00 0.00 0.01 0.01 0.01 0.01 0.01 0.01 0.01 0.03 0.03 0.03 0.03 0.03 0.03 0.02 0.01 0.01 0.01 0.02 0.01 0.01 0.01 0.01 0.02 0.03 0.03 0.03 0.03 0.03 0.04 0.04
0.00 0.00 0.00 0.00 0.00 0.00 0.00 0.00 0.00 0.00 0.00 0.01 0.01 0.01 0.01 0.00 0.00 0.00 0.00 0.01 0.01 0.01 0.01 0.01 0.01 0.01 0.02 0.03 0.03 0.03 0.03 0.03 0.03 0.02 0.01 0.01 0.01 0.01 0.01 0.01 0.01 0.02 0.04 0.05 0.04 0.04 0.04 0.03 0.02
0.00 0.00 0.00 0.00 0.00 0.00 0.00 0.00 0.00 0.01 0.01 0.01 0.01 0.01 0.01 0.00 0.00 0.00 0.00 0.01 0.01 0.01 0.00 0.01 0.01 0.01 0.02 0.05 0.04 0.03 0.04 0.04 0.03 0.02 0.01 0.01 0.01 0.01 0.02 0.02 0.02 0.02 0.03 0.04 0.04 0.05 0.05 0.04 0.03
0.00 0.00 0.00 0.00 0.00 0.00 0.00 0.00 0.00 0.00 0.00 0.00 0.01 0.01 0.01 0.00 0.00 0.00 0.00 0.00 0.01 0.01 0.01 0.00 0.01 0.01 0.02 0.04 0.05 0.03 0.03 0.04 0.04 0.02 0.01 0.02 0.02 0.02 0.02 0.02 0.02 0.02 0.03 0.04 0.05 0.05 0.05 0.05 0.05
0.00 0.00 0.00 0.00 0.00 0.00 0.00 0.00 0.00 0.00 0.00 0.00 0.00 0.00 0.00 0.00 0.00 0.00 0.00 0.00 0.00 0.01 0.01 0.01 0.00 0.01 0.02 0.03 0.05 0.04 0.03 0.04 0.04 0.03 0.02 0.02 0.03 0.04 0.04 0.03 0.03 0.03 0.03 0.06 0.07 0.04 0.04 0.05 0.05
0.00 0.00 0.00 0.00 0.00 0.00 0.00 0.00 0.00 0.00 0.00 0.00 0.00 0.00 0.00 0.00 0.00 0.00 0.00 0.00 0.00 0.01 0.01 0.02 0.02 0.01 0.02 0.03 0.04 0.05 0.03 0.04 0.04 0.03 0.02 0.02 0.03 0.05 0.06 0.06 0.05 0.04 0.03 0.04 0.06 0.07 0.05 0.04 0.03
0.00 0.00 0.00 0.00 0.00 0.00 0.00 0.00 0.00 0.00 0.00 0.00 0.00 0.00 0.00 0.00 0.00 0.00 0.00 0.00 0.00 0.00 0.01 0.02 0.03 0.02 0.03 0.03 0.03 0.04 0.04 0.03 0.04 0.04 0.04 0.04 0.04 0.05 0.07 0.07 0.08 0.08 0.07 0.06 0.06 0.07 0.07 0.06 0.04
0.00 0.00 0.00 0.00 0.00 0.00 0.00 0.00 0.00 0.00 0.00 0.00 0.01 0.01 0.01 0.00 0.00 0.00 0.00 0.00 0.00 0.00 0.01 0.01 0.02 0.02 0.03 0.03 0.03 0.04 0.03 0.04 0.04 0.04 0.04 0.04 0.04 0.05 0.06 0.07 0.08 0.10 0.10 0.09 0.08 0.07 0.08 0.08 0.06
0.00 0.01 0.01 0.01 0.01 0.00 0.00 0.00 0.00 0.00 0.01 0.01 0.01 0.02 0.01 0.00 0.00 0.00 0.00 0.00 0.00 0.00 0.00 0.01 0.01 0.02 0.03 0.05 0.04 0.03 0.03 0.03 0.04 0.05 0.04 0.04 0.04 0.04 0.05 0.05 0.06 0.06 0.08 0.10 0.11 0.10 0.09 0.08 0.06
0.00 0.01 0.01 0.00 0.00 0.00 0.00 0.00 0.00 0.01 0.00 0.00 0.01 0.01 0.01 0.01 0.00 0.00 0.00 0.00 0.00 0.00 0.01 0.01 0.01 0.01 0.02 0.04 0.05 0.04 0.04 0.04 0.04 0.04 0.05 0.04 0.04 0.03 0.03 0.04 0.04 0.04 0.04 0.05 0.07 0.09 0.09 0.08 0.07
0.00 0.01 0.01 0.01 0.01 0.00 0.00 0.00 0.00 0.00 0.00 0.00 0.00 0.01 0.01 0.01 0.01 0.01 0.00 0.00 0.00 0.00 0.00 0.00 0.01 0.01 0.02 0.03 0.05 0.06 0.05 0.04 0.04 0.03 0.03 0.03 0.04 0.03 0.03 0.03 0.03 0.03 0.03 0.03 0.04 0.05 0.05 0.06 0.07
0.00 0.00 0.01 0.01 0.01 0.00 0.00 0.00 0.00 0.00 0.00 0.01 0.01 0.01 0.02 0.01 0.01 0.01 0.01 0.00 0.00 0.00 0.00 0.00 0.01 0.01 0.02 0.03 0.04 0.06 0.07 0.07 0.06 0.05 0.03 0.02 0.02 0.03 0.02 0.01 0.02 0.02 0.02 0.02 0.02 0.03 0.03 0.04 0.05
0.01 0.01 0.01 0.01 0.01 0.01 0.00 0.00 0.00 0.00 0.01 0.01 0.01 0.01 0.02 0.02 0.01 0.02 0.01 0.01 0.01 0.00 0.00 0.01 0.01 0.02 0.02 0.03 0.04 0.07 0.09 0.09 0.09 0.08 0.06 0.04 0.02 0.02 0.02 0.01 0.01 0.01 0.01 0.01 0.01 0.01 0.01 0.02 0.02
0.01 0.01 0.01 0.02 0.01 0.01 0.00 0.00 0.00 0.00 0.00 0.01 0.01 0.01 0.01 0.02 0.01 0.01 0.01 0.01 0.01 0.01 0.01 0.01 0.02 0.03 0.04 0.04 0.04 0.05 0.07 0.08 0.10 0.09 0.08 0.06 0.04 0.02 0.01 0.01 0.01 0.01 0.01 0.01 0.01 0.01 0.01 0.01 0.01
MSLP
1015.49 1016.04 1016.88 1017.92 1019.08 1020.23 1021.28 1022.14 1022.77 1023.17 1023.42 1023.58 1023.73 1023.93 1024.23 1024.63 1025.08 1025.53 1025.92 1026.19 1026.33 1026.34 1026.26 1026.13 1026.01 1025.94 1025.93 1025.98 1026.06 1026.12 1026.14 1026.07 1025.92 1025.72 1025.48 1025.26 1025.08 1024.95 1024.87 1024.83 1024.78 1024.69 1024.56 1024.38 1024.16 1023.93 1023.71 1023.54 1023.41
1015.93 1016.65 1017.62 1018.75 1019.91 1021.01 1021.92 1022.61 1023.04 1023.27 1023.38 1023.44 1023.56 1023.78 1024.14 1024.60 1025.12 1025.63 1026.04 1026.32 1026.44 1026.42 1026.31 1026.16 1026.05 1026.00 1026.03 1026.13 1026.27 1026.39 1026.45 1026.43 1026.32 1026.15 1025.94 1025.73 1025.57 1025.44 1025.36 1025.30 1025.22 1025.12 1024.97 1024.77 1024.54 1024.30 1024.09 1023.92 1023.80
1016.46 1017.29 1018.33 1019.47 1020.59 1021.58 1022.34 1022.86 1023.13 1023.22 1023.23 1023.26 1023.37 1023.64 1024.06 1024.59 1025.17 1025.71 1026.14 1026.42 1026.54 1026.52 1026.41 1026.28 1026.19 1026.18 1026.26 1026.40 1026.57 1026.73 1026.82 1026.83 1026.74 1026.59 1026.40 1026.20 1026.03 1025.90 1025.81 1025.72 1025.62 1025.49 1025.32 1025.10 1024.87 1024.64 1024.44 1024.29 1024.19
1017.01 1017.91 1018.96 1020.05 1021.07 1021.92 1022.54 1022.90 1023.05 1023.06 1023.03 1023.06 1023.22 1023.54 1024.01 1024.59 1025.21 1025.77 1026.21 1026.50 1026.63 1026.64 1026.56 1026.48 1026.44 1026.47 1026.59 1026.76 1026.94 1027.10 1027.20 1027.21 1027.13 1026.99 1026.81 1026.63 1026.47 1026.34 1026.23 1026.12 1026.00 1025.85 1025.66 1025.45 1025.22 1025.02 1024.84 1024.72 1024.64
1017.59 1018.49 1019.49 1020.48 1021.36 1022.05 1022.52 1022.77 1022.85 1022.83 1022.82 1022.90 1023.13 1023.51 1024.04 1024.65 1025.27 1025.83 1026.27 1026.56 1026.71 1026.76 1026.74 1026.72 1026.74 1026.82 1026.96 1027.14 1027.31 1027.45 1027.53 1027.53 1027.45 1027.32 1027.17 1027.01 1026.87 1026.75 1026.64 1026.53 1026.40 1026.24 1026.05 1025.84 1025.64 1025.45 1025.32 1025.22 1025.17
1018.19 1019.03 1019.92 1020.76 1021.47 1022.00 1022.34 1022.50 1022.56 1022.58 1022.65 1022.82 1023.13 1023.59 1024.15 1024.76 1025.36 1025.89 1026.31 1026.60 1026.78 1026.87 1026.92 1026.97 1027.05 1027.17 1027.32 1027.49 1027.63 1027.74 1027.78 1027.76 1027.69 1027.58 1027.46 1027.35 1027.25 1027.16 1027.07 1026.97 1026.84 1026.68 1026.49 1026.30 1026.12 1025.97 1025.87 1025.81 1025.78
1018.82 1019.57 1020.30 1020.94 1021.46 1021.83 1022.05 1022.17 1022.24 1022.34 1022.52 1022.82 1023.23 1023.75 1024.34 1024.94 1025.50 1025.98 1026.35 1026.63 1026.82 1026.96 1027.07 1027.19 1027.32 1027.47 1027.62 1027.76 1027.86 1027.93 1027.94 1027.91 1027.85 1027.78 1027.72 1027.66 1027.62 1027.57 1027.52 1027.43 1027.32 1027.17 1026.99 1026.82 1026.66 1026.54 1026.47 1026.44 1026.42
1019.50 1020.11 1020.66 1021.09 1021.41 1021.61 1021.73 1021.82 1021.94 1022.14 1022.45 1022.88 1023.40 1023.98 1024.58 1025.15 1025.65 1026.06 1026.39 1026.64 1026.84 1027.01 1027.17 1027.34 1027.51 1027.68 1027.82 1027.93 1028.00 1028.02 1028.01 1027.98 1027.95 1027.94 1027.94 1027.96 1027.98 1027.99 1027.97 1027.91 1027.80 1027.66 1027.50 1027.34 1027.21 1027.11 1027.06 1027.05 1027.05
1020.23 1020.69 1021.04 1021.26 1021.37 1021.40 1021.43 1021.50 1021.67 1021.97 1022.41 1022.96 1023.58 1024.21 1024.81 1025.34 1025.78 1026.12 1026.39 1026.61 1026.81 1027.01 1027.21 1027.42 1027.62 1027.79 1027.92 1028.00 1028.03 1028.03 1028.02 1028.01 1028.02 1028.07 1028.14 1028.23 1028.31 1028.37 1028.38 1028.34 1028.25 1028.11 1027.96 1027.82 1027.70 1027.62 1027.58 1027.57 1027.58
1020.98 1021.30 1021.45 1021.46 1021.38 1021.26 1021.19 1021.24 1021.45 1021.84 1022.38 1023.03 1023.72 1024.38 1024.98 1025.47 1025.84 1026.12 1026.34 1026.53 1026.72 1026.93 1027.16 1027.40 1027.61 1027.79 1027.91 1027.98 1028.00 1027.99 1027.98 1028.00 1028.06 1028.16 1028.30 1028.45 1028.58 1028.67 1028.71 1028.68 1028.59 1028.46 1028.32 1028.19 1028.08 1028.01 1027.98 1027.97 1027.97
1021.70 1021.90 1021.89 1021.71 1021.45 1021.20 1021.04 1021.06 1021.28 1021.73 1022.33 1023.04 1023.77 1024.45 1025.02 1025.46 1025.78 1026.01 1026.18 1026.35 1026.54 1026.77 1027.02 1027.27 1027.50 1027.69 1027.81 1027.87 1027.89 1027.89 1027.90 1027.96 1028.06 1028.21 1028.39 1028.58 1028.73 1028.84 1028.89 1028.86 1028.78 1028.67 1028.54 1028.43 1028.33 1028.28 1028.24 1028.22 1028.20
1022.33 1022.43 1022.29 1021.98 1021.58 1021.22 1020.99 1020.97 1021.18 1021.64 1022.27 1022.99 1023.72 1024.38 1024.91 1025.31 1025.58 1025.76 1025.91 1026.07 1026.26 1026.49 1026.76 1027.03 1027.27 1027.46 1027.59 1027.66 1027.70 1027.73 1027.77 1027.86 1028.00 1028.18 1028.38 1028.57 1028.73 1028.84 1028.88 1028.86 1028.80 1028.71 1028.61 1028.53 1028.46 1028.42 1028.38 1028.34 1028.30
1022.79 1022.84 1022.62 1022.22 1021.74 1021.30 1021.02 1020.96 1021.15 1021.59 1022.19 1022.89 1023.57 1024.18 1024.66 1025.01 1025.23 1025.39 1025.52 1025.67 1025.86 1026.10 1026.38 1026.66 1026.92 1027.12 1027.26 1027.36 1027.42 1027.49 1027.57 1027.69 1027.85 1028.04 1028.23 1028.41 1028.55 1028.64 1028.68 1028.68 1028.64 1028.60 1028.56 1028.53 1028.50 1028.47 1028.44 1028.38 1028.29
1023.04 1023.06 1022.81 1022.38 1021.87 1021.42 1021.11 1021.03 1021.19 1021.58 1022.13 1022.75 1023.36 1023.89 1024.31 1024.59 1024.78 1024.91 1025.02 1025.17 1025.37 1025.62 1025.90 1026.18 1026.45 1026.66 1026.83 1026.96 1027.06 1027.16 1027.28 1027.42 1027.59 1027.77 1027.94 1028.09 1028.20 1028.27 1028.31 1028.33 1028.34 1028.37 1028.40 1028.44 1028.48 1028.49 1028.46 1028.38 1028.24
1023.07 1023.08 1022.84 1022.43 1021.95 1021.52 1021.24 1021.15 1021.29 1021.63 1022.10 1022.63 1023.14 1023.58 1023.91 1024.13 1024.28 1024.38 1024.49 1024.64 1024.83 1025.08 1025.35 1025.64 1025.90 1026.13 1026.32 1026.48 1026.62 1026.76 1026.91 1027.07 1027.24 1027.40 1027.54 1027.65 1027.72 1027.78 1027.82 1027.88 1027.95 1028.06 1028.19 1028.32 1028.43 1028.49 1028.47 1028.38 1028.21
1022.91 1022.92 1022.71 1022.36 1021.96 1021.60 1021.36 1021.30 1021.42 1021.71 1022.10 1022.53 1022.94 1023.28 1023.53 1023.69 1023.80 1023.89 1023.98 1024.13 1024.31 1024.55 1024.81 1025.08 1025.34 1025.57 1025.78 1025.97 1026.15 1026.32 1026.50 1026.68 1026.84 1026.97 1027.08 1027.14 1027.19 1027.23 1027.28 1027.38 1027.53 1027.72 1027.95 1028.17 1028.36 1028.48 1028.49 1028.39 1028.20
1022.64 1022.65 1022.48 1022.20 1021.89 1021.62 1021.46 1021.43 1021.56 1021.80 1022.12 1022.45 1022.76 1023.02 1023.20 1023.32 1023.40 1023.47 1023.57 1023.71 1023.89 1024.10 1024.34 1024.59 1024.83 1025.06 1025.27 1025.48 1025.69 1025.90 1026.10 1026.29 1026.44 1026.55 1026.62 1026.66 1026.68 1026.70 1026.77 1026.90 1027.10 1027.37 1027.68 1027.99 1028.26 1028.43 1028.49 1028.41 1028.22
1022.35 1022.34 1022.21 1021.99 1021.76 1021.58 1021.49 1021.51 1021.64 1021.85 1022.10 1022.37 1022.60 1022.78 1022.92 1023.02 1023.10 1023.18 1023.29 1023.43 1023.60 1023.79 1024.00 1024.22 1024.43 1024.65 1024.86 1025.09 1025.31 1025.55 1025.77 1025.96 1026.11 1026.21 1026.25 1026.26 1026.25 1026.26 1026.33 1026.48 1026.71 1027.03 1027.39 1027.76 1028.09 1028.32 1028.42 1028.39 1028.23
1022.15 1022.10 1021.97 1021.79 1021.62 1021.49 1021.45 1021.49 1021.61 1021.79 1022.00 1022.20 1022.39 1022.54 1022.67 1022.78 1022.89 1023.01 1023.14 1023.30 1023.47 1023.66 1023.84 1024.02 1024.20 1024.39 1024.60 1024.82 1025.06 1025.31 1025.54 1025.74 1025.89 1025.98 1026.01 1025.99 1025.96 1025.95 1026.01 1026.15 1026.38 1026.71 1027.09 1027.48 1027.83 1028.10 1028.26 1028.29 1028.20
1022.12 1022.00 1021.82 1021.63 1021.47 1021.36 1021.31 1021.34 1021.44 1021.58 1021.74 1021.91 1022.07 1022.23 1022.39 1022.55 1022.72 1022.90 1023.10 1023.29 1023.49 1023.67 1023.83 1023.99 1024.14 1024.30 1024.49 1024.70 1024.94 1025.20 1025.44 1025.65 1025.80 1025.88 1025.90 1025.87 1025.82 1025.79 1025.82 1025.93 1026.13 1026.42 1026.77 1027.14 1027.49 1027.79 1028.00 1028.09 1028.09
1022.26 1022.05 1021.80 1021.55 1021.34 1021.17 1021.08 1021.05 1021.08 1021.16 1021.27 1021.42 1021.59 1021.79 1022.01 1022.26 1022.52 1022.80 1023.08 1023.35 1023.58 1023.78 1023.94 1024.08 1024.20 1024.34 1024.51 1024.71 1024.94 1025.20 1025.44 1025.66 1025.82 1025.90 1025.93 1025.89 1025.83 1025.78 1025.76 1025.82 1025.97 1026.19 1026.47 1026.79 1027.12 1027.41 1027.65 1027.82 1027.91
1022.55 1022.24 1021.89 1021.53 1021.21 1020.94 1020.73 1020.59 1020.52 1020.52 1020.59 1020.71 1020.91 1021.16 1021.48 1021.84 1022.23 1022.63 1023.02 1023.36 1023.66 1023.89 1024.07 1024.20 1024.32 1024.44 1024.59 1024.78 1025.01 1025.26 1025.50 1025.73 1025.90 1026.00 1026.03 1026.00 1025.94 1025.88 1025.83 1025.84 1025.91 1026.05 1026.25 1026.49 1026.76 1027.03 1027.28 1027.51 1027.69
1022.90 1022.49 1022.03 1021.54 1021.08 1020.66 1020.30 1020.01 1019.81 1019.71 1019.71 1019.82 1020.04 1020.37 1020.78 1021.27 1021.79 1022.33 1022.83 1023.27 1023.64 1023.92 1024.13 1024.28 1024.40 1024.52 1024.67 1024.85 1025.07 1025.32 1025.57 1025.80 1025.98 1026.11 1026.16 1026.16 1026.12 1026.06 1026.00 1025.97 1025.98 1026.05 1026.16 1026.32 1026.52 1026.74 1026.99 1027.25 1027.50
1023.20 1022.71 1022.14 1021.53 1020.92 1020.33 1019.79 1019.34 1019.00 1018.79 1018.72 1018.81 1019.06 1019.45 1019.96 1020.56 1021.22 1021.87 1022.48 1023.02 1023.46 1023.80 1024.05 1024.24 1024.38 1024.52 1024.68 1024.87 1025.09 1025.35 1025.60 1025.84 1026.05 1026.20 1026.29 1026.33 1026.32 1026.29 1026.24 1026.20 1026.18 1026.19 1026.24 1026.33 1026.46 1026.63 1026.85 1027.11 1027.39
1023.33 1022.80 1022.16 1021.45 1020.70 1019.95 1019.25 1018.64 1018.16 1017.85 1017.71 1017.78 1018.04 1018.49 1019.08 1019.78 1020.53 1021.27 1021.98 1022.59 1023.10 1023.50 1023.81 1024.04 1024.23 1024.40 1024.59 1024.81 1025.05 1025.32 1025.59 1025.85 1026.07 1026.25 1026.39 1026.47 1026.52 1026.53 1026.53 1026.51 1026.50 1026.49 1026.50 1026.54 1026.62 1026.75 1026.93 1027.16 1027.44
1023.24 1022.72 1022.05 1021.26 1020.42 1019.55 1018.72 1017.98 1017.38 1016.97 1016.78 1016.83 1017.10 1017.57 1018.21 1018.97 1019.79 1020.60 1021.36 1022.03 1022.59 1023.05 1023.41 1023.70 1023.94 1024.18 1024.42 1024.68 1024.96 1025.25 1025.54 1025.82 1026.07 1026.28 1026.46 1026.60 1026.70 1026.78 1026.83 1026.87 1026.89 1026.90 1026.92 1026.94 1027.00 1027.09 1027.23 1027.43 1027.66
1022.90 1022.43 1021.78 1020.98 1020.09 1019.15 1018.24 1017.41 1016.73 1016.25 1016.02 1016.03 1016.30 1016.78 1017.45 1018.22 1019.06 1019.90 1020.68 1021.38 1021.97 1022.47 1022.89 1023.25 1023.57 1023.88 1024.19 1024.51 1024.84 1025.18 1025.50 1025.80 1026.07 1026.31 1026.52 1026.71 1026.87 1027.01 1027.13 1027.23 1027.31 1027.38 1027.42 1027.47 1027.53 1027.60 1027.72 1027.88 1028.07
1022.36 1021.97 1021.38 1020.62 1019.73 1018.78 1017.82 1016.95 1016.22 1015.71 1015.44 1015.44 1015.69 1016.16 1016.81 1017.57 1018.39 1019.21 1019.98 1020.69 1021.30 1021.84 1022.31 1022.74 1023.14 1023.54 1023.94 1024.35 1024.74 1025.13 1025.48 1025.81 1026.10 1026.36 1026.60 1026.81 1027.02 1027.21 1027.39 1027.56 1027.71 1027.84 1027.94 1028.03 1028.11 1028.20 1028.31 1028.44 1028.59
1021.70 1021.41 1020.91 1020.21 1019.36 1018.43 1017.48 1016.60 1015.85 1015.32 1015.04 1015.01 1015.23 1015.67 1016.28 1017.00 1017.78 1018.55 1019.29 1019.98 1020.61 1021.17 1021.70 1022.21 1022.71 1023.20 1023.70 1024.19 1024.66 1025.10 1025.50 1025.86 1026.17 1026.44 1026.69 1026.92 1027.15 1027.38 1027.60 1027.82 1028.03 1028.22 1028.38 1028.53 1028.66 1028.78 1028.90 1029.03 1029.16
1021.03 1020.83 1020.41 1019.78 1018.98 1018.08 1017.16 1016.29 1015.55 1015.01 1014.71 1014.66 1014.84 1015.23 1015.78 1016.44 1017.15 1017.87 1018.58 1019.25 1019.88 1020.48 1021.07 1021.66 1022.25 1022.85 1023.44 1024.03 1024.58 1025.08 1025.53 1025.91 1026.24 1026.52 1026.78 1027.02 1027.26 1027.50 1027.75 1028.00 1028.25 1028.48 1028.70 1028.89 1029.07 1029.24 1029.40 1029.55 1029.69
Thickness
5677 5679 5680 5674 5657 5641 5642 5652 5658 5659 5661 5665 5666 5665 5663 5661 5661 5660 5664 5668 5668 5667 5665 5664 5663 5662 5660 5658 5656 5656 5656 5655 5655 5656 5656 5656 5656 5656 5656 5657 5657 5657 5657 5656 5655 5655 5654 5653 5652
5673 5676 5672 5659 5642 5632 5639 5650 5653 5657 5661 5662 5662 5662 5660 5659 5661 5661 5661 5663 5664 5664 5662 5661 5660 5658 5656 5654 5652 5652 5652 5651 5652 5652 5651 5651 5651 5651 5651 5652 5652 5652 5651 5651 5650 5649 5648 5648 5647
5670 5670 5658 5644 5634 5632 5644 5652 5652 5655 5658 5659 5656 5656 5656 5657 5658 5658 5659 5660 5660 5660 5658 5657 5656 5654 5653 5651 5649 5648 5647 5647 5647 5648 5647 5647 5647 5647 5647 5646 5646 5646 5646 5645 5644 5643 5642 5642 5641
5664 5656 5646 5635 5634 5639 5645 5649 5649 5650 5654 5655 5654 5651 5652 5655 5655 5656 5657 5657 5656 5655 5654 5653 5652 5650 5649 5647 5646 5644 5643 5643 5643 5644 5643 5643 5643 5642 5642 5641 5641 5641 5640 5639 5638 5637 5636 5636 5635
5654 5644 5634 5626 5633 5640 5643 5646 5647 5647 5648 5650 5649 5647 5649 5652 5653 5653 5652 5652 5652 5650 5650 5648 5647 5646 5645 5643 5642 5641 5640 5639 5639 5639 5639 5638 5638 5637 5637 5636 5635 5635 5634 5633 5632 5631 5630 5630 5629
5640 5634 5624 5621 5631 5637 5640 5642 5643 5643 5643 5645 5645 5644 5646 5647 5648 5648 5648 5647 5647 5646 5645 5644 5642 5641 5640 5639 5637 5636 5635 5635 5635 5634 5634 5633 5633 5632 5631 5630 5629 5629 5628 5627 5626 5625 5624 5623 5622
5634 5626 5621 5623 5627 5632 5638 5639 5638 5638 5639 5640 5642 5640 5642 5643 5643 5643 5642 5642 5641 5641 5640 5639 5637 5636 5635 5634 5633 5631 5631 5630 5630 5629 5628 5627 5627 5626 5625 5624 5623 5623 5622 5621 5620 5619 5618 5617 5616
5633 5623 5619 5617 5622 5629 5634 5635 5636 5636 5636 5638 5639 5637 5638 5639 5637 5637 5636 5636 5636 5635 5635 5634 5633 5632 5630 5629 5628 5627 5626 5625 5625 5624 5622 5622 5621 5620 5619 5618 5617 5616 5615 5614 5613 5613 5612 5610 5609
5631 5616 5613 5618 5620 5628 5629 5629 5630 5632 5632 5632 5632 5633 5635 5634 5632 5631 5630 5629 5629 5630 5629 5629 5628 5627 5626 5625 5623 5622 5621 5620 5619 5618 5617 5616 5615 5615 5613 5612 5611 5610 5609 5608 5607 5606 5604 5603 5602
5620 5611 5617 5621 5622 5624 5624 5624 5624 5625 5626 5627 5627 5628 5628 5627 5626 5626 5625 5625 5625 5624 5624 5624 5624 5623 5622 5621 5619 5618 5616 5615 5614 5613 5612 5611 5610 5609 5608 5607 5605 5604 5603 5601 5600 5599 5597 5596 5595
5615 5613 5616 5617 5619 5620 5619 5620 5621 5621 5622 5624 5625 5624 5622 5621 5621 5621 5621 5621 5621 5620 5620 5619 5619 5618 5617 5616 5615 5613 5612 5611 5609 5608 5607 5606 5604 5603 5602 5600 5599 5598 5597 5595 5593 5592 5591 5589 5589
5607 5608 5611 5613 5615 5615 5615 5615 5615 5616 5622 5624 5623 5622 5619 5618 5617 5618 5617 5616 5615 5615 5615 5614 5614 5613 5612 5611 5611 5609 5607 5606 5604 5603 5601 5600 5599 5597 5596 5595 5593 5591 5589 5588 5586 5585 5584 5582 5582
5603 5603 5605 5606 5607 5608 5609 5609 5610 5613 5617 5618 5617 5616 5614 5614 5614 5614 5613 5612 5611 5610 5611 5609 5609 5608 5607 5607 5606 5604 5603 5601 5599 5598 5596 5595 5594 5592 5590 5589 5587 5585 5582 5580 5579 5578 5577 5576 5575
5597 5596 5598 5600 5602 5603 5603 5605 5604 5612 5612 5611 5610 5610 5610 5610 5610 5609 5608 5607 5607 5607 5607 5605 5605 5604 5603 5602 5601 5599 5598 5596 5594 5593 5591 5590 5588 5587 5585 5583 5581 5578 5576 5574 5572 5571 5571 5570 5569
5592 5591 5593 5594 5596 5597 5598 5602 5604 5609 5607 5605 5605 5605 5605 5606 5605 5604 5605 5605 5604 5603 5603 5601 5600 5599 5598 5598 5596 5595 5593 5591 5590 5588 5586 5585 5583 5582 5580 5578 5575 5573 5570 5568 5566 5565 5564 5564 5562
5586 5583 5583 5591 5589 5590 5591 5601 5610 5604 5601 5600 5599 5599 5600 5602 5601 5601 5601 5600 5600 5598 5598 5597 5596 5594 5594 5593 5592 5590 5588 5586 5584 5583 5581 5579 5578 5576 5574 5572 5570 5567 5565 5563 5561 5560 5558 5557 5555
5574 5573 5577 5583 5583 5583 5584 5593 5603 5598 5596 5596 5595 5595 5596 5597 5598 5598 5597 5596 5595 5594 5593 5592 5591 5590 5589 5588 5586 5585 5582 5581 5580 5578 5576 5574 5572 5570 5569 5567 5565 5562 5560 5558 5556 5554 5552 5551 5549
5570 5568 5571 5574 5577 5576 5576 5585 5595 5593 5590 5590 5590 5590 5592 5594 5596 5595 5593 5592 5591 5590 5589 5588 5587 5586 5584 5582 5580 5578 5576 5575 5574 5573 5571 5569 5567 5565 5563 5561 5560 5557 5555 5553 5551 5549 5546 5544 5543
5567 5565 5567 5571 5570 5570 5572 5580 5590 5590 5586 5586 5586 5586 5588 5591 5592 5590 5589 5589 5587 5586 5584 5584 5582 5581 5579 5577 5575 5573 5571 5570 5569 5568 5566 5564 5562 5561 5559 5557 5555 5552 5550 5548 5546 5543 5540 5538 5536
5562 5562 5563 5566 5565 5564 5566 5574 5586 5588 5588 5588 5587 5587 5587 5587 5587 5586 5585 5584 5583 5582 5581 5580 5579 5577 5576 5574 5572 5570 5567 5565 5564 5562 5560 5558 5557 5555 5554 5552 5550 5548 5546 5543 5540 5538 5534 5532 5530
5557 5557 5558 5558 5558 5559 5559 5577 5587 5590 5586 5586 5584 5584 5584 5584 5583 5582 5581 5579 5578 5578 5577 5577 5575 5573 5572 5570 5566 5564 5561 5559 5557 5556 5555 5553 5552 5551 5549 5547 5546 5543 5541 5539 5536 5533 5531 5527 5524
5555 5553 5552 5551 5549 5548 5553 5557 5580 5584 5582 5584 5583 5579 5578 5578 5578 5578 5577 5575 5574 5574 5573 5572 5570 5568 5566 5564 5562 5560 5558 5556 5555 5553 5551 5549 5548 5547 5545 5543 5541 5539 5537 5534 5532 5530 5527 5523 5519
5547 5545 5544 5544 5543 5541 5544 5545 5569 5575 5581 5585 5582 5577 5574 5573 5572 5572 5572 5572 5571 5569 5567 5566 5564 5563 5561 5559 5558 5556 5555 5553 5550 5548 5546 5544 5543 5542 5540 5538 5536 5534 5532 5530 5527 5525 5522 5519 5516
5537 5537 5535 5528 5528 5534 5543 5541 5559 5567 5580 5584 5581 5574 5570 5568 5566 5566 5566 5566 5565 5563 5562 5560 5559 5558 5556 5554 5553 5552 5551 5548 5546 5544 5541 5539 5538 5536 5535 5533 5531 5529 5527 5524 5521 5519 5516 5513 5510
5533 5532 5522 5522 5513 5526 5536 5538 5556 5574 5574 5574 5574 5570 5565 5561 5560 5560 5559 5558 5558 5557 5555 5554 5553 5552 5550 5549 5548 5548 5546 5545 5543 5541 5538 5535 5533 5532 5531 5529 5527 5524 5522 5519 5515 5512 5510 5506 5503
5527 5531 5523 5521 5518 5524 5530 5535 5563 5570 5568 5565 5563 5561 5558 5554 5553 5553 5553 5551 5551 5550 5549 5547 5547 5546 5545 5544 5543 5543 5541 5540 5539 5537 5535 5533 5531 5530 5528 5525 5522 5519 5516 5513 5509 5506 5502 5499 5496
5521 5518 5523 5511 5498 5506 5526 5536 5557 5567 5563 5560 5557 5554 5551 5548 5547 5546 5546 5544 5544 5544 5543 5543 5542 5541 5539 5539 5539 5538 5537 5535 5534 5533 5530 5528 5526 5525 5523 5520 5517 5513 5510 5506 5502 5498 5495 5491 5488
5515 5512 5508 5506 5509 5513 5530 5539 5548 5566 5560 5554 5550 5547 5546 5542 5541 5540 5539 5537 5537 5538 5538 5538 5537 5536 5535 5534 5533 5533 5532 5531 5529 5527 5525 5523 5521 5519 5516 5514 5511 5507 5504 5500 5495 5491 5487 5483 5480
5505 5505 5505 5498 5500 5509 5516 5540 5549 5551 5551 5545 5542 5541 5539 5537 5535 5534 5532 5531 5530 5531 5531 5531 5531 5530 5529 5528 5528 5526 5525 5525 5523 5521 5519 5517 5516 5514 5511 5508 5505 5501 5497 5493 5488 5484 5480 5476 5473
5500 5504 5501 5505 5497 5493 5507 5530 5546 5541 5538 5535 5534 5534 5533 5531 5528 5526 5525 5524 5523 5523 5523 5523 5523 5523 5522 5522 5520 5519 5518 5517 5515 5514 5513 5511 5509 5507 5504 5502 5498 5495 5491 5486 5482 5478 5473 5469 5466